• In Czech Republic
  • List of Countries
  • For 7 days
  • Water Temperature
  • Satellite Maps
  • Weather Map
  • Weather Widgets
  • user-avatar
    Login

    Hourly Weather Olshany

    Today, 21 May, Monday

    Time Temperature Precipitation Wind Pressure Humidity
    00:00 +8°C° 0 mm 2 mps 756 mmHg 74%
    01:00 +7°C° 0 mm 2 mps 756 mmHg 76%
    02:00 +6°C° 0 mm 2 mps 756 mmHg 80%
    03:00 +6°C° 0 mm 2 mps 756 mmHg 80%
    04:00 +6°C° 0 mm 2 mps 756 mmHg 81%
    05:00 +6°C° 0 mm 2 mps 757 mmHg 81%
    06:00 +9°C° 0 mm 2 mps 757 mmHg 74%
    07:00 +11°C° 0 mm 3 mps 757 mmHg 67%
    08:00 +13°C° 0 mm 3 mps 757 mmHg 58%
    09:00 +15°C° 0 mm 4 mps 757 mmHg 53%
    10:00 +17°C° 0 mm 4 mps 757 mmHg 48%
    11:00 +17°C° 0 mm 5 mps 757 mmHg 43%
    12:00 +19°C° 0 mm 5 mps 757 mmHg 43%
    13:00 +20°C° 0 mm 5 mps 757 mmHg 42%
    14:00 +20°C° 0 mm 5 mps 756 mmHg 41%
    15:00 +20°C° 0 mm 4 mps 756 mmHg 43%
    16:00 +20°C° 0 mm 4 mps 756 mmHg 45%
    17:00 +20°C° 0 mm 4 mps 756 mmHg 48%
    18:00 +18°C° 0 mm 3 mps 756 mmHg 55%
    19:00 +16°C° 0 mm 3 mps 756 mmHg 62%
    20:00 +14°C° 0 mm 2 mps 756 mmHg 69%
    21:00 +13°C° 0 mm 2 mps 756 mmHg 71%
    22:00 +12°C° 0 mm 2 mps 756 mmHg 72%
    23:00 +12°C° 0 mm 2 mps 756 mmHg 74%

    Tomorrow, 22 May, Tuesday

    Time Temperature Precipitation Wind Pressure Humidity
    00:00 +10°C° 0 mm 2 mps 756 mmHg 75%
    01:00 +10°C° 0 mm 2 mps 756 mmHg 76%
    02:00 +10°C° 0 mm 2 mps 755 mmHg 76%
    03:00 +10°C° 0 mm 2 mps 755 mmHg 77%
    04:00 +10°C° 0 mm 2 mps 755 mmHg 78%
    05:00 +12°C° 0 mm 2 mps 755 mmHg 79%
    06:00 +12°C° 0.1 mm 2 mps 755 mmHg 79%
    07:00 +11°C° 0.1 mm 3 mps 754 mmHg 80%
    08:00 +12°C° 0.1 mm 3 mps 754 mmHg 80%
    09:00 +12°C° 0.3 mm 3 mps 754 mmHg 82%
    10:00 +12°C° 0.3 mm 3 mps 754 mmHg 83%
    11:00 +13°C° 0.3 mm 3 mps 754 mmHg 84%
    12:00 +13°C° 0.2 mm 3 mps 753 mmHg 85%
    13:00 +13°C° 0.2 mm 3 mps 753 mmHg 85%
    14:00 +14°C° 0.2 mm 2 mps 753 mmHg 86%
    15:00 +14°C° 0 mm 2 mps 753 mmHg 85%
    16:00 +15°C° 0 mm 2 mps 752 mmHg 83%
    17:00 +16°C° 0 mm 2 mps 752 mmHg 81%
    18:00 +15°C° 0 mm 1 mps 752 mmHg 84%
    19:00 +14°C° 0 mm 1 mps 752 mmHg 88%
    20:00 +13°C° 0 mm 1 mps 752 mmHg 92%
    21:00 +13°C° 0 mm 1 mps 752 mmHg 93%
    22:00 +12°C° 0 mm 1 mps 752 mmHg 94%
    23:00 +12°C° 0 mm 2 mps 752 mmHg 95%

    Day after tomorrow, 23 May, Wednesday

    Time Temperature Precipitation Wind Pressure Humidity
    00:00 +12°C° 0.1 mm 2 mps 752 mmHg 96%
    01:00 +12°C° 0.1 mm 2 mps 752 mmHg 96%
    02:00 +12°C° 0.1 mm 2 mps 751 mmHg 96%
    03:00 +12°C° 0.2 mm 2 mps 751 mmHg 96%
    04:00 +12°C° 0.2 mm 2 mps 751 mmHg 97%
    05:00 +12°C° 0.2 mm 2 mps 751 mmHg 97%
    06:00 +12°C° 0.2 mm 3 mps 751 mmHg 94%
    07:00 +14°C° 0.2 mm 3 mps 751 mmHg 92%
    08:00 +16°C° 0.2 mm 3 mps 751 mmHg 89%
    09:00 +17°C° 0.2 mm 3 mps 752 mmHg 83%
    10:00 +19°C° 0.2 mm 3 mps 752 mmHg 77%
    11:00 +20°C° 0.2 mm 3 mps 752 mmHg 70%
    12:00 +21°C° 0.1 mm 3 mps 752 mmHg 66%
    13:00 +21°C° 0.1 mm 3 mps 752 mmHg 61%
    14:00 +22°C° 0.1 mm 3 mps 752 mmHg 56%
    15:00 +22°C° 0 mm 3 mps 752 mmHg 59%
    16:00 +21°C° 0 mm 3 mps 752 mmHg 61%
    17:00 +21°C° 0 mm 3 mps 752 mmHg 63%
    18:00 +19°C° 0 mm 3 mps 752 mmHg 71%
    19:00 +17°C° 0 mm 3 mps 752 mmHg 79%
    20:00 +15°C° 0 mm 2 mps 753 mmHg 87%
    21:00 +15°C° 0 mm 2 mps 753 mmHg 90%
    22:00 +14°C° 0 mm 2 mps 753 mmHg 92%
    23:00 +13°C° 0 mm 2 mps 754 mmHg 94%

    24 May, Thursday

    Time Temperature Precipitation Wind Pressure Humidity
    00:00 +12°C° 0 mm 2 mps 754 mmHg 95%
    01:00 +12°C° 0 mm 2 mps 754 mmHg 95%
    02:00 +10°C° 0 mm 2 mps 754 mmHg 96%
    03:00 +12°C° 0 mm 2 mps 754 mmHg 96%
    04:00 +12°C° 0 mm 2 mps 754 mmHg 95%
    05:00 +12°C° 0 mm 2 mps 755 mmHg 95%
    06:00 +13°C° 0 mm 2 mps 755 mmHg 88%
    07:00 +14°C° 0 mm 3 mps 755 mmHg 81%
    08:00 +17°C° 0 mm 3 mps 755 mmHg 73%
    09:00 +18°C° 0 mm 3 mps 755 mmHg 68%
    10:00 +20°C° 0 mm 3 mps 755 mmHg 63%
    11:00 +21°C° 0 mm 4 mps 755 mmHg 58%
    12:00 +22°C° 0 mm 4 mps 755 mmHg 55%
    13:00 +22°C° 0 mm 4 mps 755 mmHg 53%
    14:00 +23°C° 0 mm 4 mps 755 mmHg 51%
    15:00 +23°C° 0 mm 4 mps 755 mmHg 53%
    16:00 +23°C° 0 mm 4 mps 755 mmHg 55%
    17:00 +23°C° 0 mm 4 mps 755 mmHg 57%
    18:00 +21°C° 0 mm 4 mps 755 mmHg 62%
    19:00 +19°C° 0 mm 4 mps 755 mmHg 68%
    20:00 +18°C° 0 mm 4 mps 755 mmHg 74%
    21:00 +17°C° 0 mm 4 mps 756 mmHg 76%
    22:00 +14°C° 0 mm 4 mps 756 mmHg 78%
    23:00 +13°C° 0 mm 4 mps 756 mmHg 81%

    25 May, Friday

    Time Temperature Precipitation Wind Pressure Humidity
    00:00 +13°C° 0 mm 4 mps 757 mmHg 83%
    01:00 +12°C° 0 mm 3 mps 757 mmHg 86%
    02:00 +11°C° 0 mm 3 mps 757 mmHg 88%
    03:00 +11°C° 0 mm 3 mps 758 mmHg 88%
    04:00 +10°C° 0 mm 3 mps 758 mmHg 88%
    05:00 +10°C° 0 mm 3 mps 758 mmHg 87%
    06:00 +11°C° 0 mm 3 mps 759 mmHg 81%
    07:00 +13°C° 0 mm 4 mps 759 mmHg 74%
    08:00 +14°C° 0 mm 4 mps 759 mmHg 67%
    09:00 +15°C° 0 mm 4 mps 759 mmHg 61%
    10:00 +18°C° 0 mm 4 mps 759 mmHg 54%
    11:00 +19°C° 0 mm 4 mps 759 mmHg 48%
    12:00 +19°C° 0 mm 4 mps 759 mmHg 47%
    13:00 +20°C° 0 mm 4 mps 759 mmHg 45%
    14:00 +20°C° 0 mm 4 mps 759 mmHg 43%
    15:00 +20°C° 0 mm 4 mps 759 mmHg 44%
    16:00 +20°C° 0 mm 4 mps 759 mmHg 46%
    17:00 +19°C° 0 mm 4 mps 759 mmHg 47%
    18:00 +18°C° 0 mm 3 mps 759 mmHg 53%
    19:00 +16°C° 0 mm 3 mps 760 mmHg 60%
    20:00 +14°C° 0 mm 2 mps 760 mmHg 66%
    21:00 +13°C° 0 mm 2 mps 760 mmHg 67%
    22:00 +12°C° 0 mm 2 mps 760 mmHg 68%
    23:00 +10°C° 0 mm 2 mps 761 mmHg 70%

    26 May, Saturday

    Time Temperature Precipitation Wind Pressure Humidity
    00:00 +9°C° 0 mm 2 mps 761 mmHg 71%
    01:00 +9°C° 0 mm 2 mps 762 mmHg 72%
    02:00 +8°C° 0 mm 2 mps 762 mmHg 74%
    03:00 +8°C° 0 mm 2 mps 762 mmHg 74%
    04:00 +8°C° 0 mm 2 mps 763 mmHg 74%
    05:00 +9°C° 0 mm 1 mps 763 mmHg 74%
    06:00 +10°C° 0 mm 2 mps 763 mmHg 67%
    07:00 +13°C° 0 mm 2 mps 763 mmHg 59%
    08:00 +15°C° 0 mm 2 mps 764 mmHg 52%
    09:00 +16°C° 0 mm 2 mps 764 mmHg 48%
    10:00 +17°C° 0 mm 3 mps 763 mmHg 44%
    11:00 +19°C° 0 mm 3 mps 763 mmHg 41%
    12:00 +19°C° 0 mm 3 mps 763 mmHg 40%
    13:00 +20°C° 0 mm 3 mps 763 mmHg 40%
    14:00 +20°C° 0 mm 3 mps 763 mmHg 40%
    15:00 +20°C° 0 mm 2 mps 763 mmHg 43%
    16:00 +20°C° 0 mm 2 mps 762 mmHg 45%
    17:00 +20°C° 0 mm 2 mps 762 mmHg 47%
    18:00 +18°C° 0 mm 2 mps 762 mmHg 55%
    19:00 +16°C° 0 mm 2 mps 762 mmHg 62%
    20:00 +14°C° 0 mm 2 mps 761 mmHg 70%
    21:00 +13°C° 0 mm 2 mps 761 mmHg 73%
    22:00 +12°C° 0 mm 2 mps 762 mmHg 75%
    23:00 +10°C° 0 mm 2 mps 762 mmHg 77%
    Show more